Year,Month,Day,Hour,Minute,Value (Times are PST for temperature in C)
2011,05,17,00,00,6.90
2011,05,17,00,01,6.80
2011,05,17,00,02,6.80
2011,05,17,00,03,6.80
2011,05,17,00,04,6.80
2011,05,17,00,05,6.80
2011,05,17,00,06,6.80
2011,05,17,00,07,6.80
2011,05,17,00,08,6.90
2011,05,17,00,09,6.90
2011,05,17,00,10,6.90
2011,05,17,00,11,6.90
2011,05,17,00,12,6.90
2011,05,17,00,13,6.90
2011,05,17,00,14,6.90
2011,05,17,00,15,7.00
2011,05,17,00,16,7.00
2011,05,17,00,17,7.10
2011,05,17,00,18,7.10
2011,05,17,00,19,7.10
2011,05,17,00,20,7.10
2011,05,17,00,21,7.10
2011,05,17,00,22,7.10
2011,05,17,00,23,7.10
2011,05,17,00,24,7.10
2011,05,17,00,25,7.10
2011,05,17,00,26,7.10
2011,05,17,00,27,7.10
2011,05,17,00,28,7.10
2011,05,17,00,29,7.20
2011,05,17,00,30,7.20
2011,05,17,00,31,7.20
2011,05,17,00,32,7.20
2011,05,17,00,33,7.20
2011,05,17,00,34,7.30
2011,05,17,00,35,7.30
2011,05,17,00,36,7.30
2011,05,17,00,37,7.30
2011,05,17,00,38,7.30
2011,05,17,00,39,7.30
2011,05,17,00,40,7.30
2011,05,17,00,41,7.30
2011,05,17,00,42,7.30
2011,05,17,00,43,7.20
2011,05,17,00,44,7.20
2011,05,17,00,45,7.20
2011,05,17,00,46,7.20
2011,05,17,00,47,7.10
2011,05,17,00,48,7.10
2011,05,17,00,49,7.10
2011,05,17,00,50,7.00
2011,05,17,00,51,7.00
2011,05,17,00,52,6.90
2011,05,17,00,53,6.90
2011,05,17,00,54,6.90
2011,05,17,00,55,6.80
2011,05,17,00,56,6.80
2011,05,17,00,57,6.70
2011,05,17,00,58,6.70
2011,05,17,00,59,6.60
2011,05,17,01,00,6.60
2011,05,17,01,01,6.50
2011,05,17,01,02,6.50
2011,05,17,01,03,6.40
2011,05,17,01,04,6.40
2011,05,17,01,05,6.40
2011,05,17,01,06,6.30
2011,05,17,01,07,6.30
2011,05,17,01,08,6.30
2011,05,17,01,09,6.20
2011,05,17,01,10,6.20
2011,05,17,01,11,6.20
2011,05,17,01,12,6.10
2011,05,17,01,13,6.10
2011,05,17,01,14,6.10
2011,05,17,01,15,6.00
2011,05,17,01,16,6.00
2011,05,17,01,17,5.90
2011,05,17,01,18,5.90
2011,05,17,01,19,5.90
2011,05,17,01,20,5.90
2011,05,17,01,21,5.80
2011,05,17,01,22,5.80
2011,05,17,01,23,5.80
2011,05,17,01,24,5.80
2011,05,17,01,25,5.80
2011,05,17,01,26,5.70
2011,05,17,01,27,5.70
2011,05,17,01,28,5.70
2011,05,17,01,29,5.70
2011,05,17,01,30,5.60
2011,05,17,01,31,5.60
2011,05,17,01,32,5.60
2011,05,17,01,33,5.60
2011,05,17,01,34,5.60
2011,05,17,01,35,5.70
2011,05,17,01,36,5.70
2011,05,17,01,37,5.70
2011,05,17,01,38,5.80
2011,05,17,01,39,5.80
2011,05,17,01,40,5.80
2011,05,17,01,41,5.90
2011,05,17,01,42,5.90
2011,05,17,01,43,6.00
2011,05,17,01,44,6.00
2011,05,17,01,45,6.00
2011,05,17,01,46,6.00
2011,05,17,01,47,6.10
2011,05,17,01,48,6.10
2011,05,17,01,49,6.10
2011,05,17,01,50,6.10
2011,05,17,01,51,6.10
2011,05,17,01,52,6.20
2011,05,17,01,53,6.20
2011,05,17,01,54,6.20
2011,05,17,01,55,6.20
2011,05,17,01,56,6.20
2011,05,17,01,57,6.10
2011,05,17,01,58,6.10
2011,05,17,01,59,6.10
2011,05,17,02,00,6.10
2011,05,17,02,01,6.10
2011,05,17,02,02,6.00
2011,05,17,02,03,6.00
2011,05,17,02,04,5.90
2011,05,17,02,05,5.90
2011,05,17,02,06,5.90
2011,05,17,02,07,5.90
2011,05,17,02,08,6.00
2011,05,17,02,09,5.90
2011,05,17,02,10,6.00
2011,05,17,02,11,6.00
2011,05,17,02,12,6.00
2011,05,17,02,13,6.00
2011,05,17,02,14,6.00
2011,05,17,02,15,6.00
2011,05,17,02,16,6.00
2011,05,17,02,17,6.00
2011,05,17,02,18,5.90
2011,05,17,02,19,5.90
2011,05,17,02,20,5.90
2011,05,17,02,21,5.90
2011,05,17,02,22,5.90
2011,05,17,02,23,5.90
2011,05,17,02,24,5.80
2011,05,17,02,25,5.80
2011,05,17,02,26,5.80
2011,05,17,02,27,5.80
2011,05,17,02,28,5.80
2011,05,17,02,29,5.80
2011,05,17,02,30,5.80
2011,05,17,02,31,5.80
2011,05,17,02,32,5.80
2011,05,17,02,33,5.80
2011,05,17,02,34,5.80
2011,05,17,02,35,5.80
2011,05,17,02,36,5.80
2011,05,17,02,37,5.80
2011,05,17,02,38,5.80
2011,05,17,02,39,5.80
2011,05,17,02,40,5.70
2011,05,17,02,41,5.70
2011,05,17,02,42,5.70
2011,05,17,02,43,5.70
2011,05,17,02,44,5.70
2011,05,17,02,45,5.60
2011,05,17,02,46,5.60
2011,05,17,02,47,5.60
2011,05,17,02,48,5.60
2011,05,17,02,49,5.60
2011,05,17,02,50,5.60
2011,05,17,02,51,5.60
2011,05,17,02,52,5.60
2011,05,17,02,53,5.50
2011,05,17,02,54,5.50
2011,05,17,02,55,5.50
2011,05,17,02,56,5.40
2011,05,17,02,57,5.40
2011,05,17,02,58,5.40
2011,05,17,02,59,5.40
2011,05,17,03,00,5.40
2011,05,17,03,01,5.30
2011,05,17,03,02,5.30
2011,05,17,03,03,5.30
2011,05,17,03,04,5.30
2011,05,17,03,05,5.30
2011,05,17,03,06,5.30
2011,05,17,03,07,5.30
2011,05,17,03,08,5.20
2011,05,17,03,09,5.20
2011,05,17,03,10,5.20
2011,05,17,03,11,5.20
2011,05,17,03,12,5.20
2011,05,17,03,13,5.20
2011,05,17,03,14,5.10
2011,05,17,03,15,5.10
2011,05,17,03,16,5.10
2011,05,17,03,17,5.10
2011,05,17,03,18,5.10
2011,05,17,03,19,5.10
2011,05,17,03,20,5.10
2011,05,17,03,21,5.00
2011,05,17,03,22,5.00
2011,05,17,03,23,5.00
2011,05,17,03,24,4.90
2011,05,17,03,25,4.90
2011,05,17,03,26,4.90
2011,05,17,03,27,4.90
2011,05,17,03,28,4.90
2011,05,17,03,29,4.80
2011,05,17,03,30,4.80
2011,05,17,03,31,4.80
2011,05,17,03,32,4.80
2011,05,17,03,33,4.80
2011,05,17,03,34,4.80
2011,05,17,03,35,4.80
2011,05,17,03,36,4.80
2011,05,17,03,37,4.80
2011,05,17,03,38,4.80
2011,05,17,03,39,4.80
2011,05,17,03,40,4.80
2011,05,17,03,41,4.80
2011,05,17,03,42,4.80
2011,05,17,03,43,4.80
2011,05,17,03,44,4.80
2011,05,17,03,45,4.80
2011,05,17,03,46,4.70
2011,05,17,03,47,4.70
2011,05,17,03,48,4.70
2011,05,17,03,49,4.70
2011,05,17,03,50,4.70
2011,05,17,03,51,4.70
2011,05,17,03,52,4.70
2011,05,17,03,53,4.70
2011,05,17,03,54,4.70
2011,05,17,03,55,4.70
2011,05,17,03,56,4.70
2011,05,17,03,57,4.70
2011,05,17,03,58,4.60
2011,05,17,03,59,4.60
2011,05,17,04,00,4.50
2011,05,17,04,01,4.50
2011,05,17,04,02,4.40
2011,05,17,04,03,4.40
2011,05,17,04,04,4.40
2011,05,17,04,05,4.30
2011,05,17,04,06,4.30
2011,05,17,04,07,4.30
2011,05,17,04,08,4.30
2011,05,17,04,09,4.30
2011,05,17,04,10,4.20
2011,05,17,04,11,4.20
2011,05,17,04,12,4.20
2011,05,17,04,13,4.20
2011,05,17,04,14,4.20
2011,05,17,04,15,4.20
2011,05,17,04,16,4.10
2011,05,17,04,17,4.10
2011,05,17,04,18,4.10
2011,05,17,04,19,4.10
2011,05,17,04,20,4.10
2011,05,17,04,21,4.00
2011,05,17,04,22,4.00
2011,05,17,04,23,4.00
2011,05,17,04,24,3.90
2011,05,17,04,25,3.90
2011,05,17,04,26,3.90
2011,05,17,04,27,3.90
2011,05,17,04,28,3.80
2011,05,17,04,29,3.80
2011,05,17,04,30,3.80
2011,05,17,04,31,3.80
2011,05,17,04,32,3.80
2011,05,17,04,33,3.70
2011,05,17,04,34,3.70
2011,05,17,04,35,3.70
2011,05,17,04,36,3.70
2011,05,17,04,37,3.70
2011,05,17,04,38,3.60
2011,05,17,04,39,3.60
2011,05,17,04,40,3.60
2011,05,17,04,41,3.50
2011,05,17,04,42,3.50
2011,05,17,04,43,3.50
2011,05,17,04,44,3.50
2011,05,17,04,45,3.40
2011,05,17,04,46,3.40
2011,05,17,04,47,3.40
2011,05,17,04,48,3.40
2011,05,17,04,49,3.40
2011,05,17,04,50,3.40
2011,05,17,04,51,3.40
2011,05,17,04,52,3.40
2011,05,17,04,53,3.50
2011,05,17,04,54,3.50
2011,05,17,04,55,3.50
2011,05,17,04,56,3.60
2011,05,17,04,57,3.60
2011,05,17,04,58,3.60
2011,05,17,04,59,3.70
2011,05,17,05,00,3.70
2011,05,17,05,01,3.70
2011,05,17,05,02,3.70
2011,05,17,05,03,3.70
2011,05,17,05,04,3.70
2011,05,17,05,05,3.80
2011,05,17,05,06,3.70
2011,05,17,05,07,3.80
2011,05,17,05,08,3.80
2011,05,17,05,09,3.80
2011,05,17,05,10,3.80
2011,05,17,05,11,3.80
2011,05,17,05,12,3.80
2011,05,17,05,13,3.80
2011,05,17,05,14,3.80
2011,05,17,05,15,3.80
2011,05,17,05,16,3.80
2011,05,17,05,17,3.80
2011,05,17,05,18,3.80
2011,05,17,05,19,3.70
2011,05,17,05,20,3.70
2011,05,17,05,21,3.70
2011,05,17,05,22,3.70
2011,05,17,05,23,3.70
2011,05,17,05,24,3.70
2011,05,17,05,25,3.70
2011,05,17,05,26,3.70
2011,05,17,05,27,3.70
2011,05,17,05,28,3.70
2011,05,17,05,29,3.70
2011,05,17,05,30,3.60
2011,05,17,05,31,3.60
2011,05,17,05,32,3.60
2011,05,17,05,33,3.60
2011,05,17,05,34,3.60
2011,05,17,05,35,3.60
2011,05,17,05,36,3.60
2011,05,17,05,37,3.60
2011,05,17,05,38,3.60
2011,05,17,05,39,3.60
2011,05,17,05,40,3.60
2011,05,17,05,41,3.60
2011,05,17,05,42,3.60
2011,05,17,05,43,3.60
2011,05,17,05,44,3.60
2011,05,17,05,45,3.60
2011,05,17,05,46,3.60
2011,05,17,05,47,3.60
2011,05,17,05,48,3.60
2011,05,17,05,49,3.60
2011,05,17,05,50,3.70
2011,05,17,05,51,3.70
2011,05,17,05,52,3.70
2011,05,17,05,53,3.70
2011,05,17,05,54,3.70
2011,05,17,05,55,3.70
2011,05,17,05,56,3.80
2011,05,17,05,57,3.80
2011,05,17,05,58,3.80
2011,05,17,05,59,3.80
2011,05,17,06,00,3.80
2011,05,17,06,01,3.80
2011,05,17,06,02,3.80
2011,05,17,06,03,3.80
2011,05,17,06,04,3.70
2011,05,17,06,05,3.70
2011,05,17,06,06,3.70
2011,05,17,06,07,3.70
2011,05,17,06,08,3.60
2011,05,17,06,09,3.60
2011,05,17,06,10,3.60
2011,05,17,06,11,3.60
2011,05,17,06,12,3.60
2011,05,17,06,13,3.60
2011,05,17,06,14,3.50
2011,05,17,06,15,3.50
2011,05,17,06,16,3.50
2011,05,17,06,17,3.50
2011,05,17,06,18,3.50
2011,05,17,06,19,3.50
2011,05,17,06,20,3.50
2011,05,17,06,21,3.50
2011,05,17,06,22,3.50
2011,05,17,06,23,3.50
2011,05,17,06,24,3.60
2011,05,17,06,25,3.60
2011,05,17,06,26,3.60
2011,05,17,06,27,3.60
2011,05,17,06,28,3.60
2011,05,17,06,29,3.70
2011,05,17,06,30,3.70
2011,05,17,06,31,3.70
2011,05,17,06,32,3.70
2011,05,17,06,33,3.80
2011,05,17,06,34,3.80
2011,05,17,06,35,3.90
2011,05,17,06,36,3.90
2011,05,17,06,37,4.00
2011,05,17,06,38,4.00
2011,05,17,06,39,4.10
2011,05,17,06,40,4.10
2011,05,17,06,41,4.20
2011,05,17,06,42,4.20
2011,05,17,06,43,4.30
2011,05,17,06,44,4.30
2011,05,17,06,45,4.30
2011,05,17,06,46,4.40
2011,05,17,06,47,4.40
2011,05,17,06,48,4.50
2011,05,17,06,49,4.50
2011,05,17,06,50,4.50
2011,05,17,06,51,4.60
2011,05,17,06,52,4.60
2011,05,17,06,53,4.60
2011,05,17,06,54,4.60
2011,05,17,06,55,4.60
2011,05,17,06,56,4.60
2011,05,17,06,57,4.70
2011,05,17,06,58,4.70
2011,05,17,06,59,4.70
2011,05,17,07,00,4.70
2011,05,17,07,01,4.70
2011,05,17,07,02,4.70
2011,05,17,07,03,4.70
2011,05,17,07,04,4.70
2011,05,17,07,05,4.80
2011,05,17,07,06,4.80
2011,05,17,07,07,4.80
2011,05,17,07,08,4.80
2011,05,17,07,09,4.80
2011,05,17,07,10,4.80
2011,05,17,07,11,4.80
2011,05,17,07,12,4.80
2011,05,17,07,13,4.80
2011,05,17,07,14,4.80
2011,05,17,07,15,4.80
2011,05,17,07,16,4.80
2011,05,17,07,17,4.90
2011,05,17,07,18,4.90
2011,05,17,07,19,4.90
2011,05,17,07,20,4.90
2011,05,17,07,21,4.90
2011,05,17,07,22,4.90
2011,05,17,07,23,4.90
2011,05,17,07,24,4.90
2011,05,17,07,25,4.90
2011,05,17,07,26,4.90
2011,05,17,07,27,5.00
2011,05,17,07,28,5.00
2011,05,17,07,29,5.00
2011,05,17,07,30,5.00
2011,05,17,07,31,5.00
2011,05,17,07,32,5.10
2011,05,17,07,33,5.10
2011,05,17,07,34,5.10
2011,05,17,07,35,5.10
2011,05,17,07,36,5.10
2011,05,17,07,37,5.10
2011,05,17,07,38,5.10
2011,05,17,07,39,5.10
2011,05,17,07,40,5.10
2011,05,17,07,41,5.10
2011,05,17,07,42,5.10
2011,05,17,07,43,5.10
2011,05,17,07,44,5.10
2011,05,17,07,45,5.20
2011,05,17,07,46,5.20
2011,05,17,07,47,5.20
2011,05,17,07,48,5.20
2011,05,17,07,49,5.20
2011,05,17,07,50,5.20
2011,05,17,07,51,5.20
2011,05,17,07,52,5.20
2011,05,17,07,53,5.20
2011,05,17,07,54,5.30
2011,05,17,07,55,5.30
2011,05,17,07,56,5.30
2011,05,17,07,57,5.30
2011,05,17,07,58,5.30
2011,05,17,07,59,5.30
2011,05,17,08,00,5.30
2011,05,17,08,01,5.30
2011,05,17,08,02,5.40
2011,05,17,08,03,5.40
2011,05,17,08,04,5.40
2011,05,17,08,05,5.40
2011,05,17,08,06,5.50
2011,05,17,08,07,5.50
2011,05,17,08,08,5.60
2011,05,17,08,09,5.60
2011,05,17,08,10,5.60
2011,05,17,08,11,5.70
2011,05,17,08,12,5.70
2011,05,17,08,13,5.70
2011,05,17,08,14,5.70
2011,05,17,08,15,5.80
2011,05,17,08,16,5.80
2011,05,17,08,17,5.80
2011,05,17,08,18,5.90
2011,05,17,08,19,5.90
2011,05,17,08,20,6.00
2011,05,17,08,21,6.10
2011,05,17,08,22,6.10
2011,05,17,08,23,6.20
2011,05,17,08,24,6.20
2011,05,17,08,25,6.30
2011,05,17,08,26,6.30
2011,05,17,08,27,6.40
2011,05,17,08,28,6.40
2011,05,17,08,29,6.50
2011,05,17,08,30,6.50
2011,05,17,08,31,6.60
2011,05,17,08,32,6.70
2011,05,17,08,33,6.70
2011,05,17,08,34,6.80
2011,05,17,08,35,6.80
2011,05,17,08,36,6.90
2011,05,17,08,37,7.00
2011,05,17,08,38,7.00
2011,05,17,08,39,7.10
2011,05,17,08,40,7.20
2011,05,17,08,41,7.30
2011,05,17,08,42,7.40
2011,05,17,08,43,7.50
2011,05,17,08,44,7.60
2011,05,17,08,45,7.70
2011,05,17,08,46,7.80
2011,05,17,08,47,7.90
2011,05,17,08,48,8.00
2011,05,17,08,49,8.10
2011,05,17,08,50,8.20
2011,05,17,08,51,8.30
2011,05,17,08,52,8.40
2011,05,17,08,53,8.50
2011,05,17,08,54,8.50
2011,05,17,08,55,8.60
2011,05,17,08,56,8.70
2011,05,17,08,57,8.70
2011,05,17,08,58,8.70
2011,05,17,08,59,8.80
2011,05,17,09,00,8.80
2011,05,17,09,01,8.90
2011,05,17,09,02,8.90
2011,05,17,09,03,8.90
2011,05,17,09,04,9.00
2011,05,17,09,05,9.00
2011,05,17,09,06,9.10
2011,05,17,09,07,9.10
2011,05,17,09,08,9.10
2011,05,17,09,09,9.20
2011,05,17,09,10,9.20
2011,05,17,09,11,9.30
2011,05,17,09,12,9.40
2011,05,17,09,13,9.50
2011,05,17,09,14,9.60
2011,05,17,09,15,9.70
2011,05,17,09,16,9.90
2011,05,17,09,17,10.00
2011,05,17,09,18,10.10
2011,05,17,09,19,10.10
2011,05,17,09,20,10.20
2011,05,17,09,21,10.20
2011,05,17,09,22,10.20
2011,05,17,09,23,10.30
2011,05,17,09,24,10.30
2011,05,17,09,25,10.30
2011,05,17,09,26,10.40
2011,05,17,09,27,10.40
2011,05,17,09,28,10.50
2011,05,17,09,29,10.60
2011,05,17,09,30,10.60
2011,05,17,09,31,10.70
2011,05,17,09,32,10.70
2011,05,17,09,33,10.80
2011,05,17,09,34,10.80
2011,05,17,09,35,10.90
2011,05,17,09,36,11.00
2011,05,17,09,37,11.00
2011,05,17,09,38,11.10
2011,05,17,09,39,11.10
2011,05,17,09,40,11.10
2011,05,17,09,41,11.10
2011,05,17,09,42,11.10
2011,05,17,09,43,11.10
2011,05,17,09,44,11.00
2011,05,17,09,45,11.00
2011,05,17,09,46,11.00
2011,05,17,09,47,11.10
2011,05,17,09,48,11.10
2011,05,17,09,49,11.10
2011,05,17,09,50,11.10
2011,05,17,09,51,11.10
2011,05,17,09,52,11.10
2011,05,17,09,53,11.10
2011,05,17,09,54,11.10
2011,05,17,09,55,11.10
2011,05,17,09,56,11.20
2011,05,17,09,57,11.20
2011,05,17,09,58,11.20
2011,05,17,09,59,11.20
2011,05,17,10,00,11.30
2011,05,17,10,01,11.30
2011,05,17,10,02,11.30
2011,05,17,10,03,11.30
2011,05,17,10,04,11.30
2011,05,17,10,05,11.40
2011,05,17,10,06,11.40
2011,05,17,10,07,11.40
2011,05,17,10,08,11.40
2011,05,17,10,09,11.40
2011,05,17,10,10,11.40
2011,05,17,10,11,11.40
2011,05,17,10,12,11.40
2011,05,17,10,13,11.40
2011,05,17,10,14,11.40
2011,05,17,10,15,11.40
2011,05,17,10,16,11.50
2011,05,17,10,17,11.50
2011,05,17,10,18,11.50
2011,05,17,10,19,11.60
2011,05,17,10,20,11.60
2011,05,17,10,21,11.60
2011,05,17,10,22,11.60
2011,05,17,10,23,11.60
2011,05,17,10,24,11.50
2011,05,17,10,25,11.50
2011,05,17,10,26,11.50
2011,05,17,10,27,11.40
2011,05,17,10,28,11.30
2011,05,17,10,29,11.30
2011,05,17,10,30,11.30
2011,05,17,10,31,11.30
2011,05,17,10,32,11.30
2011,05,17,10,33,11.30
2011,05,17,10,34,11.30
2011,05,17,10,35,11.30
2011,05,17,10,36,11.30
2011,05,17,10,37,11.30
2011,05,17,10,38,11.30
2011,05,17,10,39,11.30
2011,05,17,10,40,11.20
2011,05,17,10,41,11.20
2011,05,17,10,42,11.20
2011,05,17,10,43,11.20
2011,05,17,10,44,11.20
2011,05,17,10,45,11.20
2011,05,17,10,46,11.20
2011,05,17,10,47,11.10
2011,05,17,10,48,11.10
2011,05,17,10,49,11.10
2011,05,17,10,50,11.10
2011,05,17,10,51,11.10
2011,05,17,10,52,11.20
2011,05,17,10,53,11.20
2011,05,17,10,54,11.20
2011,05,17,10,55,11.20
2011,05,17,10,56,11.30
2011,05,17,10,57,11.20
2011,05,17,10,58,11.20
2011,05,17,10,59,11.20
2011,05,17,11,00,11.20
2011,05,17,11,01,11.30
2011,05,17,11,02,11.30
2011,05,17,11,03,11.30
2011,05,17,11,04,11.30
2011,05,17,11,05,11.30
2011,05,17,11,06,11.30
2011,05,17,11,07,11.30
2011,05,17,11,08,11.30
2011,05,17,11,09,11.30
2011,05,17,11,10,11.30
2011,05,17,11,11,11.30
2011,05,17,11,12,11.30
2011,05,17,11,13,11.30
2011,05,17,11,14,11.30
2011,05,17,11,15,11.30
2011,05,17,11,16,11.30
2011,05,17,11,17,11.40
2011,05,17,11,18,11.50
2011,05,17,11,19,11.50
2011,05,17,11,20,11.50
2011,05,17,11,21,11.50
2011,05,17,11,22,11.60
2011,05,17,11,23,11.60
2011,05,17,11,24,11.60
2011,05,17,11,25,11.60
2011,05,17,11,26,11.60
2011,05,17,11,27,11.50
2011,05,17,11,28,11.50
2011,05,17,11,29,11.50
2011,05,17,11,30,11.50
2011,05,17,11,31,11.60
2011,05,17,11,32,11.60
2011,05,17,11,33,11.70
2011,05,17,11,34,11.70
2011,05,17,11,35,11.70
2011,05,17,11,36,11.80
2011,05,17,11,37,11.80
2011,05,17,11,38,11.90
2011,05,17,11,39,11.90
2011,05,17,11,40,12.00
2011,05,17,11,41,12.00
2011,05,17,11,42,12.00
2011,05,17,11,43,12.00
2011,05,17,11,44,12.00
2011,05,17,11,45,12.00
2011,05,17,11,46,12.00
2011,05,17,11,47,11.90
2011,05,17,11,48,11.90
2011,05,17,11,49,11.90
2011,05,17,11,50,11.90
2011,05,17,11,51,11.90
2011,05,17,11,52,11.90
2011,05,17,11,53,11.90
2011,05,17,11,54,11.90
2011,05,17,11,55,11.90
2011,05,17,11,56,11.90
2011,05,17,11,57,11.90
2011,05,17,11,58,11.90
2011,05,17,11,59,12.00
2011,05,17,12,00,12.00
2011,05,17,12,01,12.00
2011,05,17,12,02,12.00
2011,05,17,12,03,12.00
2011,05,17,12,04,12.00
2011,05,17,12,05,12.00
2011,05,17,12,06,12.10
2011,05,17,12,07,12.10
2011,05,17,12,08,12.10
2011,05,17,12,09,12.00
2011,05,17,12,10,12.00
2011,05,17,12,11,12.00
2011,05,17,12,12,12.10
2011,05,17,12,13,12.10
2011,05,17,12,14,12.20
2011,05,17,12,15,12.20
2011,05,17,12,16,12.20
2011,05,17,12,17,12.20
2011,05,17,12,18,12.20
2011,05,17,12,19,12.20
2011,05,17,12,20,12.20
2011,05,17,12,21,12.30
2011,05,17,12,22,12.30
2011,05,17,12,23,12.30
2011,05,17,12,24,12.30
2011,05,17,12,25,12.20
2011,05,17,12,26,12.30
2011,05,17,12,27,12.30
2011,05,17,12,28,12.30
2011,05,17,12,29,12.30
2011,05,17,12,30,12.30
2011,05,17,12,31,12.30
2011,05,17,12,32,12.30
2011,05,17,12,33,12.30
2011,05,17,12,34,12.30
2011,05,17,12,35,12.30
2011,05,17,12,36,12.40
2011,05,17,12,37,12.30
2011,05,17,12,38,12.40
2011,05,17,12,39,12.30
2011,05,17,12,40,12.30
2011,05,17,12,41,12.30
2011,05,17,12,42,12.30
2011,05,17,12,43,12.40
2011,05,17,12,44,12.40
2011,05,17,12,45,12.40
2011,05,17,12,46,12.30
2011,05,17,12,47,12.30
2011,05,17,12,48,12.30
2011,05,17,12,49,12.30
2011,05,17,12,50,12.30
2011,05,17,12,51,12.40
2011,05,17,12,52,12.40
2011,05,17,12,53,12.50
2011,05,17,12,54,12.50
2011,05,17,12,55,12.50
2011,05,17,12,56,12.50
2011,05,17,12,57,12.50
2011,05,17,12,58,12.50
2011,05,17,12,59,12.60
2011,05,17,13,00,12.60
2011,05,17,13,01,12.60
2011,05,17,13,02,12.60
2011,05,17,13,03,12.60
2011,05,17,13,04,12.60
2011,05,17,13,05,12.60
2011,05,17,13,06,12.50
2011,05,17,13,07,12.50
2011,05,17,13,08,12.40
2011,05,17,13,09,12.50
2011,05,17,13,10,12.50
2011,05,17,13,11,12.50
2011,05,17,13,12,12.60
2011,05,17,13,13,12.60
2011,05,17,13,14,12.60
2011,05,17,13,15,12.70
2011,05,17,13,16,12.70
2011,05,17,13,17,12.80
2011,05,17,13,18,12.80
2011,05,17,13,19,12.80
2011,05,17,13,20,12.80
2011,05,17,13,21,12.70
2011,05,17,13,22,12.80
2011,05,17,13,23,12.80
2011,05,17,13,24,12.80
2011,05,17,13,25,12.90
2011,05,17,13,26,12.90
2011,05,17,13,27,13.00
2011,05,17,13,28,13.00
2011,05,17,13,29,13.00
2011,05,17,13,30,13.00
2011,05,17,13,31,13.00
2011,05,17,13,32,13.00
2011,05,17,13,33,13.00
2011,05,17,13,34,13.00
2011,05,17,13,35,13.00
2011,05,17,13,36,13.00
2011,05,17,13,37,13.00
2011,05,17,13,38,13.00
2011,05,17,13,39,13.00
2011,05,17,13,40,13.10
2011,05,17,13,41,13.10
2011,05,17,13,42,13.00
2011,05,17,13,43,13.00
2011,05,17,13,44,12.90
2011,05,17,13,45,12.90
2011,05,17,13,46,12.80
2011,05,17,13,47,12.80
2011,05,17,13,48,12.80
2011,05,17,13,49,12.80
2011,05,17,13,50,12.80
2011,05,17,13,51,12.90
2011,05,17,13,52,12.90
2011,05,17,13,53,12.90
2011,05,17,13,54,12.90
2011,05,17,13,55,12.90
2011,05,17,13,56,12.90
2011,05,17,13,57,12.90
2011,05,17,13,58,12.90
2011,05,17,13,59,13.00
2011,05,17,14,00,13.00
2011,05,17,14,01,13.10
2011,05,17,14,02,13.10
2011,05,17,14,03,13.10
2011,05,17,14,04,13.10
2011,05,17,14,05,13.10
2011,05,17,14,06,13.10
2011,05,17,14,07,13.10
2011,05,17,14,08,13.10
2011,05,17,14,09,13.10
2011,05,17,14,10,13.10
2011,05,17,14,11,13.10
2011,05,17,14,12,13.10
2011,05,17,14,13,13.10
2011,05,17,14,14,13.10
2011,05,17,14,15,13.10
2011,05,17,14,16,13.10
2011,05,17,14,17,13.10
2011,05,17,14,18,13.00
2011,05,17,14,19,13.00
2011,05,17,14,20,13.00
2011,05,17,14,21,13.00
2011,05,17,14,22,13.00
2011,05,17,14,23,13.00
2011,05,17,14,24,12.90
2011,05,17,14,25,13.00
2011,05,17,14,26,13.00
2011,05,17,14,27,13.10
2011,05,17,14,28,13.20
2011,05,17,14,29,13.20
2011,05,17,14,30,13.10
2011,05,17,14,31,13.10
2011,05,17,14,32,13.10
2011,05,17,14,33,13.00
2011,05,17,14,34,13.00
2011,05,17,14,35,13.00
2011,05,17,14,36,12.90
2011,05,17,14,37,12.90
2011,05,17,14,38,12.90
2011,05,17,14,39,12.90
2011,05,17,14,40,12.90
2011,05,17,14,41,12.90
2011,05,17,14,42,13.00
2011,05,17,14,43,13.10
2011,05,17,14,44,13.10
2011,05,17,14,45,13.10
2011,05,17,14,46,13.10
2011,05,17,14,47,13.10
2011,05,17,14,48,13.20
2011,05,17,14,49,13.20
2011,05,17,14,50,13.20
2011,05,17,14,51,13.20
2011,05,17,14,52,13.30
2011,05,17,14,53,13.30
2011,05,17,14,54,13.40
2011,05,17,14,55,13.40
2011,05,17,14,56,13.40
2011,05,17,14,57,13.40
2011,05,17,14,58,13.40
2011,05,17,14,59,13.40
2011,05,17,15,00,13.40
2011,05,17,15,01,13.30
2011,05,17,15,02,13.30
2011,05,17,15,03,13.30
2011,05,17,15,04,13.30
2011,05,17,15,05,13.40
2011,05,17,15,06,13.40
2011,05,17,15,07,13.50
2011,05,17,15,08,13.50
2011,05,17,15,09,13.50
2011,05,17,15,10,13.50
2011,05,17,15,11,13.50
2011,05,17,15,12,13.50
2011,05,17,15,13,13.40
2011,05,17,15,14,13.40
2011,05,17,15,15,13.30
2011,05,17,15,16,13.30
2011,05,17,15,17,13.40
2011,05,17,15,18,13.40
2011,05,17,15,19,13.40
2011,05,17,15,20,13.40
2011,05,17,15,21,13.40
2011,05,17,15,22,13.40
2011,05,17,15,23,13.40
2011,05,17,15,24,13.50
2011,05,17,15,25,13.50
2011,05,17,15,26,13.60
2011,05,17,15,27,13.60
2011,05,17,15,28,13.60
2011,05,17,15,29,13.60
2011,05,17,15,30,13.60
2011,05,17,15,31,13.70
2011,05,17,15,32,13.70
2011,05,17,15,33,13.60
2011,05,17,15,34,13.60
2011,05,17,15,35,13.70
2011,05,17,15,36,13.70
2011,05,17,15,37,13.70
2011,05,17,15,38,13.70
2011,05,17,15,39,13.70
2011,05,17,15,40,13.80
2011,05,17,15,41,13.80
2011,05,17,15,42,13.80
2011,05,17,15,43,13.80
2011,05,17,15,44,13.80
2011,05,17,15,45,13.90
2011,05,17,15,46,13.90
2011,05,17,15,47,13.90
2011,05,17,15,48,13.90
2011,05,17,15,49,13.90
2011,05,17,15,50,13.90
2011,05,17,15,51,13.90
2011,05,17,15,52,13.90
2011,05,17,15,53,13.80
2011,05,17,15,54,13.80
2011,05,17,15,55,13.80
2011,05,17,15,56,13.80
2011,05,17,15,57,13.80
2011,05,17,15,58,13.80
2011,05,17,15,59,13.80
2011,05,17,16,00,13.80
2011,05,17,16,01,13.80
2011,05,17,16,02,13.80
2011,05,17,16,03,13.80
2011,05,17,16,04,13.90
2011,05,17,16,05,13.90
2011,05,17,16,06,13.90
2011,05,17,16,07,13.90
2011,05,17,16,08,13.90
2011,05,17,16,09,13.80
2011,05,17,16,10,13.80
2011,05,17,16,11,13.80
2011,05,17,16,12,13.80
2011,05,17,16,13,13.80
2011,05,17,16,14,13.80
2011,05,17,16,15,13.80
2011,05,17,16,16,13.80
2011,05,17,16,17,13.80
2011,05,17,16,18,13.80
2011,05,17,16,19,13.80
2011,05,17,16,20,13.80
2011,05,17,16,21,13.80
2011,05,17,16,22,13.80
2011,05,17,16,23,13.80
2011,05,17,16,24,13.70
2011,05,17,16,25,13.70
2011,05,17,16,26,13.70
2011,05,17,16,27,13.70
2011,05,17,16,28,13.70
2011,05,17,16,29,13.70
2011,05,17,16,30,13.70
2011,05,17,16,31,13.70
2011,05,17,16,32,13.70
2011,05,17,16,33,13.70
2011,05,17,16,34,13.70
2011,05,17,16,35,13.70
2011,05,17,16,36,13.70
2011,05,17,16,37,13.70
2011,05,17,16,38,13.70
2011,05,17,16,39,13.70
2011,05,17,16,40,13.70
2011,05,17,16,41,13.70
2011,05,17,16,42,13.80
2011,05,17,16,43,13.80
2011,05,17,16,44,13.80
2011,05,17,16,45,13.80
2011,05,17,16,46,13.80
2011,05,17,16,47,13.80
2011,05,17,16,48,13.80
2011,05,17,16,49,13.80
2011,05,17,16,50,13.80
2011,05,17,16,51,13.80
2011,05,17,16,52,13.80
2011,05,17,16,53,13.80
2011,05,17,16,54,13.80
2011,05,17,16,55,13.80
2011,05,17,16,56,13.80
2011,05,17,16,57,13.80
2011,05,17,16,58,13.80
2011,05,17,16,59,13.90
2011,05,17,17,00,13.90
2011,05,17,17,01,13.90
2011,05,17,17,02,13.90
2011,05,17,17,03,13.90
2011,05,17,17,04,13.90
2011,05,17,17,05,13.90
2011,05,17,17,06,14.00
2011,05,17,17,07,13.90
2011,05,17,17,08,13.90
2011,05,17,17,09,13.90
2011,05,17,17,10,13.80
2011,05,17,17,11,13.80
2011,05,17,17,12,13.80
2011,05,17,17,13,13.80
2011,05,17,17,14,13.80
2011,05,17,17,15,13.80
2011,05,17,17,16,13.70
2011,05,17,17,17,13.70
2011,05,17,17,18,13.70
2011,05,17,17,19,13.70
2011,05,17,17,20,13.80
2011,05,17,17,21,13.80
2011,05,17,17,22,13.80
2011,05,17,17,23,13.80
2011,05,17,17,24,13.80
2011,05,17,17,25,13.80
2011,05,17,17,26,13.80
2011,05,17,17,27,13.70
2011,05,17,17,28,13.70
2011,05,17,17,29,13.70
2011,05,17,17,30,13.70
2011,05,17,17,31,13.70
2011,05,17,17,32,13.80
2011,05,17,17,33,13.80
2011,05,17,17,34,13.80
2011,05,17,17,35,13.90
2011,05,17,17,36,13.90
2011,05,17,17,37,13.90
2011,05,17,17,38,13.90
2011,05,17,17,39,13.90
2011,05,17,17,40,13.90
2011,05,17,17,41,13.90
2011,05,17,17,42,13.90
2011,05,17,17,43,13.90